Theta_e
331 333 336 337 340 341 341 342 342 341 340 340 340 341 341 340 338 336 334 333 331 331 335 337 336 336 335 334 334 335 334 331 328 324 320 318 317 317 320 321 322 321 321 321 324 329 335 340 342 342 342 341 338 337 337 334 333 333 333 335 338 339 338 339 339 340 339 337 337 336 334 332 330 330 334 336 335 335 337 337 338 338 340 340 340
329 332 336 336 340 341 340 342 342 341 340 340 340 340 340 337 336 334 333 333 332 333 335 337 336 335 334 335 335 336 335 333 334 332 327 324 322 321 323 324 324 322 321 323 329 334 338 342 342 342 341 340 339 339 336 333 332 328 330 335 337 338 337 339 340 339 338 338 337 335 332 330 328 329 332 335 335 336 337 338 338 338 340 339 339
330 334 335 336 341 340 340 342 342 341 341 341 340 339 338 336 334 333 333 333 333 335 336 336 336 335 335 335 335 337 336 335 335 335 333 331 330 328 327 326 326 322 323 328 334 339 341 343 342 341 341 339 339 339 337 335 331 327 333 336 336 336 336 339 340 337 337 338 336 333 333 331 330 331 333 335 336 337 338 338 338 338 339 339 339
331 335 336 338 340 341 341 341 342 341 342 341 340 339 337 335 333 333 333 334 335 337 338 336 336 335 335 334 336 337 337 337 335 335 334 334 333 333 331 329 328 323 327 334 337 340 341 342 340 340 340 339 340 340 338 335 330 331 334 333 334 335 336 338 338 336 336 338 336 334 334 333 332 333 335 336 336 337 338 339 339 339 339 339 339
331 334 335 338 339 341 341 340 342 342 342 341 339 339 338 337 336 335 333 335 337 338 337 336 336 335 335 335 337 337 336 338 335 335 335 336 334 334 334 331 330 325 331 338 338 341 341 341 340 340 339 339 341 339 336 333 333 334 332 330 333 334 334 336 335 335 335 336 334 333 334 334 334 334 335 336 336 337 339 339 340 340 339 339 339
331 333 334 337 339 341 341 341 342 342 342 341 339 339 338 338 337 336 335 334 334 336 337 336 336 335 336 337 337 336 337 338 335 335 337 337 335 336 336 334 333 328 332 338 339 342 340 340 341 340 339 339 340 338 333 332 335 333 329 329 331 332 333 334 334 333 333 334 333 334 336 336 335 335 335 335 335 336 339 339 340 339 338 338 338
330 331 333 334 337 339 339 341 342 342 341 340 340 339 339 338 338 337 336 334 332 334 337 336 336 336 338 337 337 337 338 336 332 334 337 337 336 337 337 335 335 329 332 338 339 342 339 339 340 339 339 340 340 336 333 332 332 328 326 327 329 330 331 332 332 331 332 333 334 336 338 337 336 335 334 334 335 337 339 339 339 338 338 338 338
327 330 333 332 335 337 338 339 340 341 340 340 339 339 340 338 338 337 335 334 333 334 336 336 336 337 338 338 337 338 337 332 330 334 336 337 337 338 338 336 335 330 332 338 340 340 339 339 340 339 339 340 338 334 331 329 327 324 325 326 327 329 330 330 329 330 332 334 335 337 337 338 337 337 334 334 336 337 339 339 338 338 338 338 338
323 327 330 332 334 335 336 338 339 340 339 340 338 339 339 338 338 337 335 334 333 334 336 336 336 337 338 338 337 338 336 331 332 335 336 336 337 338 337 336 334 330 333 340 341 339 338 340 340 339 339 338 335 332 329 327 325 324 325 326 327 328 328 328 329 331 333 334 335 336 337 338 338 338 336 335 337 337 338 338 338 338 337 337 336
321 325 329 332 333 333 334 336 338 338 339 339 338 338 337 337 337 336 335 333 333 333 335 337 338 337 336 336 336 337 336 334 335 337 337 336 338 338 336 335 334 332 335 339 341 340 339 340 340 339 339 335 331 328 326 325 324 324 325 326 327 327 327 327 329 332 333 334 335 335 336 337 337 338 336 335 336 336 337 337 337 336 335 336 336
318 323 327 330 331 332 332 333 335 336 338 338 339 337 337 337 336 335 334 333 333 333 336 338 338 336 335 335 334 335 336 336 337 337 337 337 338 339 336 335 335 337 338 339 341 341 340 339 340 340 338 332 327 324 323 324 324 325 326 327 327 326 326 327 329 331 333 333 334 335 336 336 336 336 335 335 335 335 336 335 335 334 335 335 335
317 320 324 328 329 330 331 332 333 334 336 338 339 337 337 336 335 334 333 333 334 335 336 338 338 337 336 335 334 334 336 337 337 338 337 337 338 338 337 337 338 339 339 340 340 340 340 340 339 340 335 327 325 323 322 324 325 326 326 327 327 326 327 328 329 330 332 333 334 336 336 336 336 337 336 335 334 334 335 335 335 335 335 335 335
316 319 322 326 327 329 330 332 333 333 335 337 338 337 337 336 334 334 333 333 334 336 336 337 336 336 336 335 335 334 335 336 337 337 337 336 337 338 337 337 338 339 339 339 340 339 339 338 338 338 330 326 326 323 322 324 327 328 327 328 327 326 327 327 329 330 332 333 335 336 336 336 336 336 335 335 334 334 335 335 335 335 335 335 335
316 318 321 325 327 329 330 332 332 331 333 335 337 337 336 335 334 334 333 333 334 335 336 336 335 335 335 334 335 334 334 335 335 336 336 335 335 338 337 337 337 339 339 338 339 339 339 337 336 334 329 330 328 323 324 327 329 329 327 328 327 326 326 327 329 330 331 333 335 335 335 335 334 335 335 335 334 334 335 335 335 335 334 334 334
315 318 322 327 328 330 331 331 331 331 331 332 334 335 335 334 334 333 332 333 333 334 334 336 335 334 334 333 333 332 334 334 334 336 336 335 336 337 338 337 337 338 339 338 339 338 338 336 334 332 329 331 328 324 326 328 327 327 327 327 326 325 325 327 329 330 331 332 334 335 335 335 334 334 334 334 334 333 334 334 334 334 333 332 332
316 319 323 327 328 330 331 331 331 331 330 331 333 334 334 334 333 332 332 333 333 333 334 335 334 334 333 332 331 331 333 333 334 335 335 335 335 337 337 337 337 337 338 338 339 337 336 334 333 333 331 331 329 328 326 325 325 325 326 325 324 324 324 327 329 329 331 331 332 333 334 334 333 333 332 332 333 333 332 332 333 332 331 330 330
316 320 323 327 329 331 331 332 332 331 331 331 333 334 333 332 332 333 333 333 333 333 333 334 334 333 332 330 329 329 331 332 334 334 335 334 333 334 335 336 335 336 337 337 337 337 336 334 333 333 332 331 330 330 327 324 324 324 324 323 323 323 324 326 328 329 330 330 330 331 333 333 332 332 331 331 332 331 331 331 331 330 330 330 329
318 321 324 326 329 332 332 332 332 332 332 331 333 334 332 331 332 333 333 332 332 332 332 333 333 331 329 327 326 328 330 332 334 334 333 333 332 332 332 334 334 334 336 335 335 335 334 333 333 331 329 328 330 330 328 325 324 323 323 322 321 322 324 325 327 328 328 329 329 329 331 331 331 331 331 330 330 330 330 329 329 329 329 329 328
320 324 326 325 327 331 332 332 332 333 332 331 333 333 332 332 331 331 332 330 331 331 331 332 331 330 327 326 325 328 332 332 333 333 332 332 332 332 331 333 333 333 334 333 332 332 332 332 331 329 327 328 330 330 327 325 324 323 323 321 320 321 323 324 324 326 326 326 327 328 329 330 331 330 330 329 328 328 328 328 328 328 328 327 327
323 325 326 326 326 328 330 331 332 332 332 332 333 333 333 332 330 330 331 330 330 330 331 331 329 328 326 325 325 326 330 332 334 332 330 331 332 332 331 332 333 333 332 332 331 330 330 330 330 329 327 329 330 327 326 325 324 323 323 322 320 320 322 323 323 324 325 325 326 328 328 329 330 329 328 328 328 327 327 327 327 327 327 326 325
324 325 326 326 326 327 329 330 331 332 332 332 333 333 333 332 329 329 330 330 329 329 330 329 327 327 325 323 323 325 328 331 334 333 331 332 332 330 330 332 332 331 332 330 329 329 330 329 329 329 328 329 328 326 325 325 323 322 321 321 319 319 320 321 322 324 325 325 326 327 327 328 328 328 328 328 327 327 326 326 326 325 325 325 324
323 324 326 326 325 325 327 329 331 331 332 332 333 334 334 332 330 330 329 329 328 329 330 329 327 326 324 321 320 325 329 330 333 333 332 332 331 330 328 330 330 331 332 330 329 328 329 329 329 329 328 328 327 326 326 324 322 321 320 319 318 318 319 321 323 325 326 326 327 327 327 327 327 327 327 327 326 326 325 325 324 324 324 323 323
322 323 324 325 325 325 326 327 330 331 332 333 333 333 333 332 331 330 329 328 328 328 330 329 327 324 324 320 319 325 328 329 332 332 332 330 330 331 328 328 330 331 331 330 328 327 328 329 329 329 328 327 326 326 324 321 319 318 318 318 317 318 320 323 325 326 326 326 327 327 327 327 327 326 326 326 325 325 324 324 323 323 322 322 322
320 321 323 325 325 325 325 326 328 331 331 332 332 331 332 332 330 329 328 328 327 328 329 329 326 322 322 319 319 326 328 328 330 332 332 330 330 330 328 328 329 330 330 330 328 327 326 327 328 328 327 326 326 325 322 319 317 318 318 317 317 320 323 324 325 325 326 326 326 327 327 326 326 325 325 325 324 324 324 323 323 322 322 322 321
319 320 323 324 325 325 325 325 326 329 331 331 330 330 332 331 330 329 329 328 328 328 329 328 325 322 321 319 317 323 328 330 330 332 331 329 328 327 326 326 326 327 328 330 329 327 325 324 326 327 327 326 325 323 321 320 318 318 318 317 318 321 323 323 323 325 325 326 326 326 326 326 325 324 324 324 323 324 323 323 323 322 321 321 321
318 320 321 322 324 325 325 325 326 327 330 330 329 330 332 331 330 329 329 328 328 329 329 327 324 322 321 320 318 319 327 330 330 332 330 327 326 325 324 322 322 323 325 329 330 328 325 323 324 325 325 325 324 323 322 321 320 319 318 316 318 321 322 321 322 324 324 325 325 325 325 325 324 323 323 323 323 323 323 323 322 322 321 320 320
318 319 319 321 323 325 326 325 326 327 329 330 328 330 332 331 330 329 329 328 328 329 328 325 323 323 322 320 319 318 325 331 331 331 330 328 326 324 320 315 317 321 325 330 329 328 326 324 324 323 323 323 323 323 322 322 321 319 318 317 317 320 321 320 321 323 323 324 325 325 325 324 323 323 323 322 323 323 322 323 322 321 320 319 318
318 319 320 321 322 325 326 325 326 327 328 329 327 328 331 331 330 330 329 328 328 328 327 325 324 323 322 321 319 318 321 328 332 332 330 327 326 325 318 315 321 324 326 328 326 327 326 324 324 323 323 323 323 323 322 321 321 320 319 318 317 320 321 320 321 322 323 324 324 324 324 323 323 322 322 322 322 322 322 322 322 321 320 318 317
319 319 320 321 322 325 326 326 327 327 328 329 327 327 329 330 330 330 329 329 328 328 327 326 324 324 322 320 319 319 319 322 329 332 330 327 327 326 319 320 325 325 323 321 323 326 325 324 324 323 323 323 323 323 322 322 321 321 320 319 319 320 320 320 321 322 323 323 324 323 323 322 322 322 321 322 323 322 322 322 321 321 320 318 316
318 319 320 320 322 325 326 326 326 327 328 329 328 326 327 329 329 329 329 328 328 327 327 326 325 323 321 320 318 319 320 319 324 331 331 328 327 326 322 322 323 323 321 318 324 327 324 324 324 324 323 322 323 323 323 323 322 321 320 320 321 321 321 320 321 321 322 323 323 323 323 322 321 321 321 322 323 322 321 322 321 320 320 318 316
318 319 319 320 322 324 326 326 326 327 327 328 327 326 326 327 327 328 327 328 327 327 326 326 325 323 320 320 319 318 320 321 324 331 332 329 327 326 325 322 320 321 320 317 322 326 324 323 323 323 323 322 323 323 323 323 322 322 321 321 322 322 321 321 321 321 322 322 322 322 323 322 321 321 321 322 322 321 320 321 321 320 320 318 317
318 319 319 320 322 323 325 326 326 326 327 327 327 326 326 326 326 326 327 328 327 326 326 325 324 323 321 320 319 319 321 323 326 331 331 327 326 326 325 323 319 318 319 319 322 325 323 322 322 323 323 322 323 323 323 323 323 323 322 323 323 322 321 321 321 321 321 322 321 322 322 321 320 321 321 322 322 320 319 319 320 319 319 318 317
317 318 319 320 322 323 324 325 326 326 326 327 327 327 327 326 326 325 326 327 326 325 325 324 323 322 321 320 320 318 319 320 324 330 330 326 325 326 324 322 319 318 322 323 322 323 322 321 322 322 322 322 322 322 322 322 323 323 322 323 323 322 321 321 321 321 321 321 321 321 321 320 319 320 321 321 322 321 320 319 319 318 318 318 317
316 317 319 320 321 323 324 325 325 326 326 326 327 327 326 326 327 326 326 326 325 325 324 324 324 322 321 322 320 317 316 317 321 327 328 325 324 325 324 322 320 318 320 322 320 320 319 319 321 321 321 321 321 321 322 322 322 322 322 322 322 322 321 321 321 321 321 321 321 320 320 319 319 320 320 321 321 320 320 319 319 318 317 316 316
315 317 319 320 321 323 325 324 324 326 326 327 326 326 326 326 327 326 326 326 325 325 325 325 323 321 321 322 321 316 314 318 322 325 324 323 324 324 324 323 322 319 317 318 320 320 318 318 320 320 319 320 320 320 320 321 321 321 321 321 321 321 321 321 321 321 321 321 320 319 318 317 317 317 319 320 321 320 319 319 319 319 317 316 316
311 315 318 320 322 323 324 324 323 324 326 327 327 326 327 326 326 326 326 326 325 325 324 324 322 321 321 321 321 317 315 318 321 323 322 322 324 323 323 323 322 321 318 317 319 320 319 318 319 319 319 319 319 318 319 320 320 320 320 320 321 321 321 321 321 320 321 320 319 317 317 316 314 314 317 319 319 320 320 319 319 318 317 317 317
306 311 316 319 322 323 324 324 323 323 324 326 326 327 326 326 326 325 325 325 325 325 324 323 322 321 320 321 322 318 315 317 319 322 321 323 324 322 322 323 323 322 319 317 317 317 319 319 318 318 319 318 318 318 318 319 319 320 319 320 320 320 321 321 320 320 320 320 319 317 315 314 313 314 316 317 318 319 319 318 318 318 317 318 318
304 306 313 318 321 323 324 324 324 323 324 325 326 326 326 326 325 325 325 324 324 324 323 323 322 322 320 321 323 319 315 316 317 320 322 322 323 321 321 322 322 321 319 319 318 316 316 319 318 317 317 317 318 317 317 318 318 318 318 319 319 319 319 320 319 319 320 320 319 318 317 315 314 315 316 316 317 318 318 318 317 317 318 319 318
303 304 309 315 320 322 323 323 323 324 324 324 325 326 326 325 325 325 324 324 324 323 323 323 322 322 321 322 323 319 316 317 318 319 320 320 320 320 321 320 319 320 320 319 318 316 316 317 318 316 316 317 317 317 316 317 316 317 317 316 317 318 318 318 318 318 318 318 318 318 318 317 316 316 316 316 316 318 318 318 317 318 318 319 318
303 304 307 313 318 321 323 323 323 323 324 325 325 325 325 325 325 325 324 324 323 323 323 323 322 322 321 322 322 319 318 320 320 321 320 320 320 320 321 320 318 319 320 319 318 317 316 317 316 315 315 316 316 317 316 316 314 313 313 314 314 315 315 315 316 316 315 316 317 317 317 318 318 318 317 317 317 318 318 318 318 318 318 318 318
305 305 307 310 314 319 322 323 324 323 324 325 326 325 325 325 324 324 323 323 323 322 322 322 322 322 320 321 321 320 320 319 319 321 321 321 321 320 320 319 319 319 320 319 318 318 316 316 315 315 315 315 314 315 315 315 312 308 308 310 310 311 312 312 312 313 313 313 314 314 315 316 317 318 318 318 318 318 317 317 317 317 317 316 316
306 306 307 309 312 316 320 322 323 323 323 325 326 326 325 324 324 324 323 323 323 322 322 322 322 321 320 321 321 320 319 318 318 320 322 321 319 319 319 318 319 318 318 318 318 318 317 316 315 314 314 314 313 313 314 314 310 305 304 304 305 308 309 310 311 311 311 312 312 312 313 314 314 315 316 316 317 317 317 316 315 315 314 314 313
305 306 307 308 311 314 317 320 323 323 323 323 325 326 325 324 324 324 323 322 323 322 322 321 321 321 320 320 321 320 320 318 318 319 321 320 319 319 318 319 320 318 317 318 317 317 317 316 315 314 313 313 312 311 313 313 308 305 305 304 305 306 306 306 308 310 310 311 311 312 312 312 313 312 313 313 314 314 313 313 313 313 313 312 313
304 305 306 307 309 312 314 317 321 323 323 322 323 324 325 324 324 323 322 322 322 322 321 321 321 320 320 319 320 320 320 320 320 320 320 319 319 320 318 318 318 317 316 317 316 316 316 316 316 315 313 311 310 309 311 312 310 308 306 304 303 306 308 305 303 306 309 310 310 310 311 311 311 311 311 311 311 312 311 311 311 311 311 312 312
304 304 305 306 308 309 311 314 319 322 323 322 322 323 324 324 324 323 322 322 322 321 321 320 320 320 319 319 319 319 320 320 320 320 319 319 319 319 318 317 316 316 316 316 316 315 316 316 315 315 314 312 309 308 308 310 311 310 307 304 304 309 309 304 302 304 304 307 309 309 310 310 311 311 311 311 310 311 310 311 311 311 311 310 310
304 304 304 306 307 308 309 312 316 319 322 322 322 323 324 324 324 324 323 322 322 321 321 320 320 320 320 319 319 319 319 319 320 319 318 318 318 317 317 317 316 316 316 316 315 314 314 315 314 314 314 313 311 308 307 308 310 310 309 308 307 308 306 302 305 305 299 302 307 308 310 309 310 310 310 310 310 310 310 310 309 307 306 304 303
304 304 304 305 306 307 308 309 312 315 319 322 323 323 324 324 324 324 323 323 322 321 321 320 320 320 319 319 319 318 318 319 319 318 318 317 317 317 316 316 317 316 316 316 314 313 313 314 313 313 313 313 312 309 307 307 307 308 308 308 304 304 305 304 306 305 300 299 300 303 307 308 309 309 309 310 309 309 306 303 301 298 297 297 297
305 305 305 305 306 307 308 308 310 312 315 319 322 322 324 325 324 324 323 323 323 321 321 320 320 320 319 319 319 318 318 318 318 318 317 317 316 316 316 316 316 316 316 315 313 312 313 313 312 311 311 312 313 311 308 307 307 306 306 307 303 301 305 306 306 304 302 300 297 297 300 302 305 306 306 306 304 301 298 295 294 294 294 295 295
305 305 305 305 306 307 307 308 308 310 311 314 319 322 323 324 325 324 323 322 322 321 321 320 320 319 319 319 319 318 317 318 318 318 317 316 315 316 316 316 315 316 316 314 312 313 312 312 311 311 311 312 312 312 309 307 308 307 304 305 301 298 300 302 304 303 300 300 298 296 295 295 297 299 299 299 297 295 294 294 294 295 295 295 295
305 305 305 305 306 306 307 308 308 309 310 311 316 320 322 323 325 325 323 322 321 321 320 320 319 319 319 319 318 318 317 317 317 317 317 316 315 315 315 315 314 315 316 314 313 313 313 311 311 311 311 311 311 311 310 308 308 308 305 304 301 296 295 295 298 299 298 298 299 295 293 293 294 294 294 294 294 294 294 294 295 295 295 296 296
304 304 304 303 304 305 306 307 307 308 309 310 313 318 321 322 323 325 324 323 322 321 320 320 319 319 318 318 318 318 317 316 317 316 316 315 315 315 314 314 314 315 316 315 313 314 313 312 311 310 310 310 311 310 310 309 308 307 306 305 304 300 297 295 295 296 296 297 297 295 292 293 294 294 294 294 294 295 295 295 296 296 297 297 298
Wind_Speed
17 18 18 17 18 20 20 17 18 18 19 18 17 17 17 16 16 16 16 15 15 16 15 14 13 13 11 11 11 11 12 12 12 14 15 16 15 15 14 14 15 16 16 15 13 13 15 16 22 27 27 29 31 31 29 28 28 28 28 27 25 24 23 21 21 21 19 19 19 18 16 16 17 18 18 17 18 18 19 20 20 21 22 20 21
18 19 19 18 18 21 21 17 18 19 19 19 17 17 17 17 16 16 16 15 15 15 15 14 14 13 12 11 11 11 11 10 10 11 12 12 13 14 14 15 16 16 16 15 14 14 15 18 26 28 28 30 31 30 29 28 28 29 28 26 25 25 24 24 23 22 20 20 19 18 16 16 17 17 17 17 18 18 19 19 20 21 21 21 22
17 19 19 19 19 21 22 18 18 19 19 18 17 17 17 18 17 16 16 15 14 14 13 13 13 13 12 12 12 12 11 10 10 11 11 11 11 12 13 15 16 16 16 15 15 15 16 24 30 28 28 29 29 28 28 27 27 29 27 25 26 25 25 25 24 22 20 20 20 19 18 18 17 17 16 17 18 19 19 19 20 21 21 21 22
17 20 19 20 20 22 23 20 19 19 19 18 18 18 17 17 16 16 16 15 13 13 13 13 12 12 12 12 12 12 12 11 11 11 11 11 11 11 12 14 17 17 16 15 15 16 19 26 29 27 27 29 28 27 26 27 27 27 25 26 27 26 26 25 22 20 19 20 21 21 20 19 18 17 17 17 18 19 19 18 20 21 21 21 22
17 20 20 21 21 23 24 23 21 20 20 18 19 19 18 17 16 16 15 14 13 13 14 13 13 12 12 12 12 12 12 11 12 11 11 11 11 12 13 15 17 18 18 16 15 19 24 28 27 25 28 29 27 26 27 26 26 24 25 28 28 26 26 23 21 18 19 20 22 23 22 20 19 18 17 17 18 19 18 18 19 21 22 22 23
16 19 21 22 23 25 25 23 21 21 20 18 19 19 19 19 18 16 15 14 13 14 14 14 14 14 13 13 13 12 11 11 12 11 11 11 12 13 14 16 18 19 19 17 16 21 28 29 24 25 29 29 26 26 27 26 24 23 26 28 27 26 24 22 20 19 20 21 23 24 22 20 19 19 17 18 19 19 19 20 20 22 23 23 23
17 19 20 23 24 25 26 23 20 20 20 19 18 19 21 21 20 18 17 16 15 15 15 15 15 15 15 14 14 13 12 12 12 11 11 11 11 13 15 17 19 21 20 18 18 21 29 29 25 27 29 27 27 27 27 26 25 25 27 27 26 25 24 22 20 19 21 23 24 24 23 20 19 19 17 18 19 20 21 22 23 24 24 24 22
17 20 21 22 23 24 24 23 21 19 19 20 19 21 22 21 21 20 19 18 17 17 17 17 16 16 16 15 15 13 12 12 13 12 11 11 11 12 15 18 20 22 20 19 20 24 29 28 26 29 29 25 26 27 27 26 26 26 26 26 26 25 23 22 19 20 22 24 25 24 22 19 19 19 18 19 20 21 22 23 24 24 24 25 24
17 20 22 22 22 22 22 22 22 20 20 21 22 23 22 20 20 20 20 19 19 19 19 18 17 18 16 16 15 13 12 13 13 12 11 11 11 12 15 18 21 22 21 20 22 29 31 27 26 28 27 26 26 27 28 27 26 26 26 27 26 25 23 21 20 22 23 24 24 24 22 19 20 21 20 21 21 22 23 23 25 25 24 25 25
18 19 22 22 22 22 21 21 21 21 20 19 23 24 21 19 19 19 20 20 20 21 20 18 19 19 16 16 15 13 13 12 12 11 11 10 11 12 15 18 21 21 20 20 24 29 31 29 28 28 27 28 30 29 29 29 28 28 28 28 27 25 23 21 22 23 23 24 24 23 21 20 21 21 21 22 23 24 24 25 26 26 25 25 26
18 20 22 23 23 22 22 22 21 22 20 18 22 25 22 20 19 19 20 20 21 23 21 19 19 17 15 15 15 13 13 12 12 11 9 9 9 12 16 19 21 20 19 21 25 27 29 32 32 28 27 30 32 32 30 29 28 28 29 28 27 25 23 23 24 23 23 23 22 22 22 22 23 22 23 24 26 27 26 26 26 25 25 24 25
20 21 22 23 23 22 22 22 22 22 21 19 21 23 23 22 20 20 20 20 21 22 21 19 19 17 15 14 14 14 13 12 11 9 8 8 8 12 16 19 20 18 18 21 26 28 29 33 33 29 29 31 31 31 30 28 27 28 29 28 27 25 24 24 24 24 23 22 22 23 24 24 24 24 24 25 26 28 26 25 25 24 24 24 25
21 21 22 23 22 22 22 22 22 22 22 19 18 21 22 22 20 20 20 19 19 21 19 18 19 19 17 14 14 15 14 12 11 8 8 7 6 11 16 18 18 16 18 22 25 28 29 31 32 31 31 31 29 30 30 28 26 28 30 28 27 26 25 25 25 25 23 23 24 25 25 25 26 25 24 24 25 26 25 24 24 24 24 24 24
21 22 22 23 22 22 22 22 21 22 22 19 17 19 21 22 20 20 20 19 19 20 18 17 18 19 18 16 17 17 16 13 12 10 8 6 5 9 15 17 17 17 19 23 26 28 29 30 31 31 31 29 28 29 29 26 25 28 30 28 26 26 25 26 26 26 24 24 25 26 27 27 26 24 24 25 25 25 25 24 24 23 24 24 24
22 22 22 22 22 22 22 22 21 21 23 21 19 20 21 21 21 21 20 18 18 19 18 17 17 18 18 16 15 15 15 13 12 12 10 7 6 7 12 15 16 19 22 24 26 29 31 32 31 30 29 27 28 30 27 25 27 29 29 27 25 25 26 27 27 26 25 25 25 25 26 25 23 23 23 24 24 24 24 24 24 23 23 24 24
22 21 21 22 22 22 22 21 22 23 23 21 21 22 22 21 21 21 21 19 18 18 18 17 17 18 17 14 13 12 14 14 13 13 12 10 9 9 11 16 18 20 24 26 27 30 32 33 31 30 29 28 28 29 28 27 28 28 26 25 24 24 25 26 27 26 25 25 23 21 21 22 20 21 22 22 23 23 23 23 22 22 22 23 24
22 21 21 22 22 22 22 22 22 24 24 23 22 23 23 21 20 20 21 20 18 18 18 16 16 16 15 14 13 13 15 14 15 16 15 14 12 12 13 17 22 20 21 26 28 30 32 33 32 30 29 29 27 26 28 28 27 25 23 24 22 23 24 25 26 25 24 23 21 18 18 20 20 20 21 22 22 22 21 22 21 21 21 21 22
22 21 21 23 23 23 23 23 23 23 25 25 23 23 22 20 20 21 21 20 19 19 18 15 14 15 15 15 15 15 15 16 18 18 17 18 16 16 16 17 20 21 21 26 30 32 32 32 31 30 30 27 25 26 27 27 25 24 23 22 21 22 24 25 25 24 23 21 20 18 18 19 20 21 22 22 22 22 21 21 20 20 20 20 20
22 21 21 24 25 25 25 24 24 24 26 26 24 24 22 20 21 22 22 20 19 20 19 15 14 17 17 16 15 15 17 18 20 20 19 20 19 19 20 19 20 20 21 24 29 30 30 31 30 28 28 26 26 26 24 25 25 24 22 20 21 22 24 24 24 23 22 21 20 20 19 18 19 21 21 22 22 21 21 20 19 20 19 19 19
22 22 22 25 26 26 26 25 26 26 28 27 24 24 22 21 22 23 23 22 20 20 19 17 17 18 17 16 15 16 18 21 22 21 21 23 23 22 23 22 21 21 20 21 24 25 24 26 26 26 28 30 29 26 23 25 26 25 24 23 22 22 23 23 22 21 21 21 20 20 19 17 17 19 21 22 21 21 20 19 18 19 18 18 18
24 24 24 26 26 27 26 26 27 27 30 29 24 23 24 23 23 23 24 23 21 20 20 20 18 17 17 17 16 16 19 23 25 25 25 27 25 23 24 24 22 22 22 22 22 23 22 24 26 27 29 31 29 26 26 26 27 27 27 25 23 22 23 22 21 21 21 22 22 21 19 18 17 18 20 21 21 21 20 19 18 18 18 18 18
25 24 25 26 26 27 26 26 26 27 29 30 25 23 25 24 23 23 24 24 21 20 22 21 18 17 18 17 16 17 21 24 26 27 27 29 27 24 24 24 23 22 23 23 24 24 23 24 26 28 30 29 28 29 29 30 30 30 28 25 23 23 22 22 22 22 22 22 22 20 18 18 18 17 18 19 20 22 20 19 19 18 18 18 19
23 26 28 28 27 27 27 26 26 28 30 31 28 24 25 25 24 23 23 24 22 22 24 22 19 19 20 18 17 19 22 24 25 27 26 27 28 25 24 24 23 23 23 23 24 25 24 25 27 28 30 30 30 33 33 33 31 29 27 25 23 23 24 23 23 23 22 22 21 19 18 18 18 17 18 19 20 21 20 20 20 19 19 19 20
27 29 28 26 27 27 28 27 27 29 32 33 30 24 24 25 24 24 24 24 23 24 24 23 22 22 21 18 18 21 23 23 25 27 25 27 29 24 23 23 21 21 21 21 21 23 25 27 28 30 33 34 34 34 35 34 32 29 27 25 24 25 25 24 24 23 22 21 19 18 19 19 19 18 18 20 19 20 20 20 20 20 20 20 20
26 25 26 25 27 29 29 28 27 30 34 35 31 25 25 26 24 25 25 25 24 25 25 24 23 22 21 18 19 22 24 24 24 27 24 24 30 26 23 23 21 21 20 19 20 22 24 26 28 31 35 36 35 35 36 34 32 29 26 25 25 26 26 24 24 23 21 20 18 19 21 20 19 19 19 19 19 20 21 20 20 20 20 20 20
21 23 27 28 29 30 29 28 28 30 34 35 32 27 27 28 27 27 27 26 26 26 26 25 24 23 21 19 20 23 26 25 24 26 24 22 29 28 25 23 22 23 23 21 21 22 23 25 28 31 33 33 33 34 35 33 30 28 26 25 25 26 26 23 23 22 21 19 17 18 21 21 19 20 20 20 21 21 21 20 20 20 20 20 20
24 26 28 27 29 30 30 29 29 32 34 35 33 30 29 29 29 29 29 29 28 28 28 27 26 24 22 21 21 23 26 27 25 26 26 25 29 29 27 26 25 26 27 25 21 21 24 26 29 31 31 32 32 33 32 31 30 28 26 25 24 25 25 22 22 22 20 18 17 19 22 20 18 20 21 21 22 21 22 21 20 20 20 19 20
25 28 28 27 29 30 31 30 31 33 34 36 35 32 30 31 31 31 31 32 31 30 30 29 27 26 24 23 23 24 26 27 27 27 28 28 31 31 29 29 30 31 31 28 23 22 25 28 30 31 32 32 32 32 32 31 30 28 27 25 24 25 24 22 21 20 18 17 18 20 21 19 18 20 20 21 21 22 24 23 20 20 20 19 19
27 32 29 28 30 30 31 32 34 34 35 36 36 35 33 31 32 32 33 34 33 32 31 30 29 27 26 25 25 26 27 27 27 28 29 31 33 33 30 32 33 32 32 30 26 25 27 28 30 31 32 31 31 31 31 31 29 28 27 25 25 25 24 22 21 18 17 17 18 20 21 20 19 20 20 20 20 22 23 23 20 19 20 20 18
35 33 29 31 31 30 32 34 36 36 36 36 36 36 35 34 34 34 34 36 34 32 32 31 30 29 28 27 26 26 27 28 29 30 31 33 34 33 31 32 33 33 33 31 28 26 27 29 30 31 31 30 30 31 31 30 29 28 26 25 26 25 23 22 20 18 17 17 18 20 21 20 20 20 21 20 20 21 21 21 21 19 19 20 18
35 30 34 35 30 30 34 36 36 36 36 36 36 36 35 36 35 35 35 37 36 35 34 32 31 30 28 28 27 26 27 29 30 32 34 34 35 34 33 33 33 33 33 33 30 27 27 29 30 30 30 30 30 30 30 30 29 28 26 26 26 25 23 22 20 18 17 17 18 20 19 19 20 22 22 21 20 21 20 19 20 19 19 19 19
32 35 41 34 30 34 36 36 37 37 37 36 37 37 37 37 36 36 36 38 38 38 37 34 33 31 30 29 28 27 27 30 31 33 36 34 33 35 35 33 33 32 31 31 29 28 29 29 29 29 30 30 30 30 29 29 29 28 27 27 26 25 23 21 20 18 17 18 19 18 18 19 18 19 21 21 20 21 20 19 19 19 19 19 18
34 39 37 31 33 37 37 37 37 38 39 38 37 37 37 36 36 37 37 38 38 38 37 35 35 34 33 32 30 29 28 30 31 33 37 35 32 36 36 34 34 31 30 29 28 29 30 29 29 29 28 29 30 30 29 29 28 28 27 26 25 24 23 22 20 19 18 21 20 18 20 20 18 17 18 19 20 22 22 22 20 18 18 18 19
35 34 30 34 38 37 36 38 38 39 41 41 39 37 37 36 37 37 38 39 38 38 37 36 37 37 36 34 33 31 28 30 32 34 37 35 34 37 37 35 35 33 31 29 28 30 30 29 28 28 28 28 29 30 30 29 28 27 27 26 24 23 24 22 20 19 20 22 21 21 24 23 21 18 16 17 20 21 21 22 21 19 18 18 18
33 31 33 39 40 36 36 38 39 40 40 41 42 40 39 38 37 37 38 39 39 39 39 38 38 37 36 34 34 32 29 32 35 36 35 33 34 36 38 38 36 36 33 31 29 29 30 30 30 30 29 29 30 30 30 30 28 27 27 25 24 23 23 22 20 19 21 23 23 23 25 23 20 17 16 17 19 19 20 21 20 18 17 17 17
33 34 36 37 36 37 37 38 39 41 40 41 42 41 39 39 40 39 39 39 39 39 39 39 37 36 35 34 36 34 30 33 37 38 35 35 37 35 37 39 38 36 32 31 31 27 29 31 31 32 32 30 29 28 29 29 28 27 26 25 23 23 22 21 20 20 21 22 23 23 24 23 18 15 15 17 18 17 18 21 20 17 16 17 16
34 35 34 33 34 36 37 37 38 41 42 41 40 39 38 38 39 39 39 39 39 39 38 38 37 36 36 35 38 37 31 34 38 39 38 38 40 35 34 38 38 34 30 31 31 27 28 30 30 31 32 31 30 28 28 29 28 27 25 24 23 22 22 22 20 20 20 21 23 23 23 24 21 17 15 16 17 18 18 18 17 16 15 15 16
33 33 32 31 32 33 35 36 37 38 40 41 40 40 39 38 37 37 37 38 38 38 38 38 37 36 37 38 40 39 35 36 38 41 41 39 39 36 35 37 35 32 31 33 32 30 29 28 29 29 29 31 33 31 30 29 28 27 25 24 23 22 21 21 20 19 19 20 22 22 23 24 24 22 18 15 15 16 18 17 14 13 13 12 14
28 28 27 26 27 29 31 33 35 36 37 38 39 40 40 38 36 35 36 37 37 37 37 37 38 38 38 40 42 40 38 40 41 43 43 40 39 39 38 37 36 35 35 35 35 33 31 29 29 29 29 31 33 33 31 30 28 27 26 24 22 22 20 19 18 18 17 18 20 22 22 23 23 23 21 18 15 15 17 17 15 13 11 10 11
24 22 21 22 24 26 28 30 32 34 35 35 37 37 37 36 35 34 35 38 39 38 38 38 37 38 39 40 42 42 41 41 43 44 42 41 41 41 41 40 40 40 38 36 36 35 34 32 30 30 31 30 31 33 32 31 29 25 24 23 20 20 19 18 17 15 14 14 15 17 20 21 21 21 20 19 16 14 14 15 14 13 12 10 10
24 19 17 19 23 25 27 29 31 34 35 34 36 38 37 36 36 36 36 38 41 39 38 39 38 38 40 41 42 43 43 43 43 43 41 42 42 41 41 41 43 44 41 38 37 36 36 34 32 31 31 31 31 32 34 34 28 21 17 18 17 17 17 16 16 14 13 13 13 13 15 17 18 19 18 18 17 14 12 12 12 12 12 11 10
24 22 19 18 19 22 26 30 31 33 36 36 36 38 41 40 38 40 39 36 39 41 40 40 40 39 39 41 43 43 44 44 43 42 42 42 42 41 41 43 45 44 41 39 38 36 35 35 33 31 31 32 32 33 37 33 24 19 16 12 10 11 12 13 14 14 14 14 15 14 14 15 15 16 16 17 17 16 14 13 12 12 11 11 10
23 24 23 20 17 19 24 29 32 33 37 40 37 36 39 43 41 40 41 37 36 40 41 39 39 39 39 40 42 44 43 44 44 43 42 42 41 40 40 42 43 40 39 38 36 35 35 36 35 33 31 31 30 34 38 32 26 25 18 9 5 6 5 8 12 14 15 15 16 16 16 16 15 15 16 16 16 16 15 15 14 13 13 12 13
28 28 27 25 21 19 22 27 32 34 37 40 41 38 35 38 40 37 37 36 32 34 35 35 37 37 37 39 41 43 43 44 44 44 43 43 42 42 41 41 40 37 38 39 37 36 37 38 36 35 34 30 29 33 33 32 33 28 15 5 4 5 2 5 9 11 15 16 16 17 17 16 17 16 16 15 15 15 14 14 13 13 14 15 16
33 34 33 31 27 24 24 25 30 35 37 38 41 43 37 31 32 32 33 32 29 30 32 32 36 38 38 41 42 43 44 45 45 45 44 44 43 43 42 41 39 38 39 40 39 39 40 39 37 36 36 31 30 31 28 29 36 34 22 10 6 4 3 7 10 9 12 17 16 17 17 16 17 16 16 16 15 15 14 14 14 14 15 16 16
34 37 38 37 33 30 28 26 27 32 37 39 38 40 41 36 31 29 31 32 28 31 38 40 41 43 44 44 43 44 45 45 45 46 46 45 43 43 43 42 42 42 41 39 39 41 41 40 38 37 36 34 32 30 27 28 34 36 33 23 10 5 9 13 9 4 8 14 16 17 18 17 17 16 16 16 15 15 15 15 15 15 16 16 16
34 37 39 40 38 35 32 29 27 30 35 39 39 38 39 40 38 34 31 32 31 33 42 45 44 45 45 43 42 42 43 44 44 45 45 45 44 43 43 43 43 43 41 39 39 40 41 40 39 38 36 36 36 32 30 31 31 31 34 28 11 9 21 21 11 5 5 9 14 17 19 18 17 17 16 16 15 14 14 15 15 15 16 17 17
36 37 38 39 38 37 35 31 28 28 32 37 41 41 40 39 41 41 37 33 32 33 39 43 43 44 43 42 42 41 43 44 44 44 44 44 43 43 43 43 43 43 42 40 39 39 39 39 37 37 36 37 39 36 34 35 34 30 32 30 15 13 26 25 20 15 6 4 8 10 15 18 18 18 16 15 15 14 14 14 15 16 16 16 16
35 35 37 38 36 37 36 32 30 29 29 32 39 42 43 42 39 41 41 38 35 32 34 36 38 40 41 41 42 41 42 44 45 45 44 43 43 43 44 44 42 43 42 39 38 37 37 38 38 36 36 38 39 37 36 38 37 33 33 31 20 17 22 20 23 21 9 7 7 4 9 12 12 14 15 14 14 14 14 13 14 15 15 15 15
33 33 35 36 35 36 36 34 33 33 31 29 35 41 43 44 42 40 40 40 37 33 31 32 33 36 39 40 41 41 41 42 43 45 45 45 44 44 43 43 42 43 43 39 38 38 37 38 39 39 39 39 39 37 38 40 36 33 35 33 24 20 17 12 18 21 12 9 7 5 11 12 9 8 11 13 14 13 14 13 14 14 14 15 15
33 33 33 34 35 36 35 35 37 37 35 31 31 38 43 43 43 43 40 38 38 35 32 31 33 35 37 39 40 41 41 42 43 43 45 46 46 45 43 42 42 42 43 41 39 39 40 39 38 39 39 39 40 38 38 41 37 32 34 35 32 28 22 14 19 23 14 9 7 5 10 16 15 12 11 13 14 14 14 13 13 13 13 14 14
Wind_Direction
194 188 186 186 194 195 191 188 193 194 193 196 198 206 207 208 209 212 216 216 217 216 210 203 206 213 218 218 219 219 225 230 227 226 223 222 219 214 207 200 198 196 195 192 195 202 205 201 184 172 165 161 157 155 153 150 146 143 141 138 135 133 133 133 132 132 129 126 125 125 127 127 124 120 116 114 113 114 116 115 115 114 111 110 110
192 188 188 187 193 195 192 190 196 196 197 200 202 208 212 216 219 224 225 222 221 217 213 208 209 212 214 214 216 219 222 225 226 229 229 227 219 215 206 199 195 194 190 186 195 203 204 190 177 171 165 163 159 156 156 153 149 147 143 139 139 139 139 137 136 137 132 131 130 128 128 127 124 122 121 119 119 121 121 120 120 117 114 114 113
185 185 187 185 190 192 192 192 195 198 200 202 205 210 215 222 226 229 229 227 220 216 215 215 216 213 209 207 210 215 220 224 227 230 230 232 226 221 212 201 196 193 184 184 196 199 195 180 172 170 167 164 158 155 156 154 151 147 142 141 144 144 141 140 141 140 137 136 133 128 127 125 124 124 125 125 125 125 125 124 122 119 118 120 118
182 184 185 185 188 189 191 194 195 198 201 201 205 211 214 219 224 226 229 227 219 217 220 219 219 213 209 205 206 212 218 222 226 229 226 232 233 230 223 207 198 191 181 184 197 192 181 172 169 169 165 161 154 152 154 152 150 146 143 146 146 144 142 144 144 140 140 139 135 130 128 127 127 127 129 130 128 127 128 127 124 122 122 122 121
187 187 188 187 188 188 190 193 196 199 200 203 206 209 212 215 218 224 229 226 220 222 223 221 217 212 210 205 208 211 216 220 225 228 223 232 236 235 229 212 200 189 180 186 194 183 170 165 168 169 163 159 154 153 153 148 146 143 144 147 145 145 145 146 144 138 140 139 135 130 127 127 128 129 132 133 132 130 128 128 126 124 123 121 118
196 194 194 192 191 190 190 191 196 201 201 206 209 208 209 213 214 221 225 222 223 226 227 223 217 211 208 206 208 209 214 219 223 227 225 232 236 236 230 215 201 189 183 187 190 179 172 168 168 169 164 160 155 154 153 147 144 143 145 147 146 147 146 146 143 139 139 136 130 126 126 127 128 130 133 133 131 129 125 126 127 124 121 118 115
207 203 199 197 197 194 194 193 198 202 204 207 210 209 208 211 213 217 218 220 225 228 230 227 221 215 209 205 206 208 212 216 218 226 232 235 236 234 228 216 200 191 186 189 189 179 176 173 170 170 162 157 155 152 150 148 147 147 148 148 147 147 147 147 143 141 139 133 127 124 126 128 130 131 133 132 129 127 124 125 126 123 120 116 112
213 211 207 203 202 199 199 197 198 203 208 209 210 212 211 212 213 215 217 221 225 227 228 226 225 221 215 208 207 208 211 217 217 222 233 239 239 232 224 212 197 192 189 193 189 176 173 171 171 169 160 157 159 156 154 153 150 150 150 149 148 147 147 146 142 141 137 130 126 125 126 129 132 131 134 133 130 128 123 122 122 120 119 117 113
216 215 214 210 205 202 202 199 200 204 210 210 211 216 214 212 213 215 219 223 226 228 228 225 225 225 221 215 210 208 213 219 217 221 227 236 239 225 213 203 194 192 194 197 187 176 172 169 170 165 159 159 157 157 156 154 153 153 152 149 147 147 146 144 141 138 134 130 128 127 128 128 128 127 132 131 128 127 123 121 119 116 117 117 114
217 217 217 214 211 207 206 205 203 207 214 212 212 218 216 210 212 216 220 223 226 229 230 226 225 224 221 220 218 211 215 217 217 222 221 231 235 211 198 195 193 193 198 197 184 178 174 170 167 163 160 157 153 153 152 151 152 153 151 148 147 146 144 142 139 135 132 130 129 131 131 129 125 124 128 127 124 123 121 119 117 116 117 116 114
218 219 219 218 216 212 211 211 209 210 216 217 216 216 212 206 206 212 219 223 225 229 230 229 230 224 215 219 227 222 217 214 215 219 216 227 227 201 190 193 193 195 203 196 185 179 175 172 166 159 159 156 153 152 150 149 149 149 149 148 147 145 143 142 139 134 132 129 129 131 131 128 125 124 124 123 120 118 117 116 116 116 116 116 113
217 220 220 221 220 218 215 214 214 212 217 221 221 215 207 203 204 210 219 223 226 230 231 233 232 224 216 218 230 233 224 215 213 212 213 221 218 202 191 195 195 197 203 191 184 178 174 172 163 157 157 155 152 150 148 147 147 149 149 148 147 144 143 143 138 134 131 126 126 128 128 126 123 123 122 121 119 118 116 115 115 113 113 113 111
216 220 220 222 221 220 216 214 213 210 216 221 221 214 205 203 205 209 218 223 227 232 233 231 224 219 217 214 222 229 226 216 214 214 213 215 213 205 195 198 196 192 194 183 176 173 173 169 158 156 155 153 151 148 147 146 146 149 149 149 147 145 145 144 139 135 130 123 124 126 124 122 122 122 121 121 120 118 115 113 112 111 111 110 110
218 221 221 222 220 219 216 215 213 210 216 222 223 214 205 202 203 209 216 222 228 233 235 230 220 219 217 210 213 219 222 214 212 216 209 199 199 205 197 198 196 184 178 174 168 164 166 162 154 155 154 151 150 149 147 145 147 149 150 149 147 147 147 144 140 136 130 124 123 124 123 121 122 121 121 122 120 116 114 112 111 110 110 110 109
221 222 221 221 218 219 218 218 217 214 216 224 228 217 206 202 203 209 214 218 227 232 233 229 217 217 218 212 213 214 218 212 207 209 199 181 170 182 186 187 190 180 166 161 162 159 159 156 154 156 155 153 153 152 149 146 150 151 150 148 148 149 149 146 141 138 133 127 124 127 126 123 123 122 120 119 118 116 114 113 112 110 109 110 109
223 221 220 220 218 218 220 221 218 217 217 223 230 218 207 205 205 208 212 217 225 228 230 227 212 212 215 210 212 210 210 207 203 202 192 175 159 160 169 171 168 166 160 155 155 155 156 155 155 154 154 153 152 152 151 150 150 150 150 149 150 151 153 150 144 140 137 133 129 131 129 123 123 122 120 119 119 119 117 116 114 112 111 109 107
225 222 218 217 219 219 219 222 220 219 219 223 230 217 208 209 208 210 211 216 223 224 226 223 210 208 210 203 201 205 207 204 201 200 192 177 163 158 156 161 155 143 146 152 152 152 152 154 154 154 156 156 154 155 154 151 148 149 152 151 152 154 158 155 148 143 141 140 137 135 128 122 122 122 121 119 119 119 119 119 116 114 112 109 106
226 224 220 218 217 217 218 220 223 224 221 224 228 215 211 214 215 216 211 216 222 220 221 218 202 195 201 201 198 201 204 203 202 199 193 181 169 163 152 151 150 137 137 143 145 147 150 151 151 153 157 160 161 160 156 152 151 153 155 154 154 157 160 158 152 148 144 143 140 134 127 123 122 120 119 118 118 118 117 117 116 114 112 109 108
225 226 223 222 218 217 216 217 223 227 226 225 225 215 213 216 218 218 214 217 220 217 218 214 195 187 194 201 200 200 200 204 206 200 193 185 175 168 154 144 145 142 140 141 142 144 146 150 153 156 158 162 163 161 160 158 158 158 160 161 159 161 162 160 155 151 146 143 138 132 129 129 126 121 119 117 117 116 114 114 114 114 114 111 109
228 228 227 227 224 221 217 216 220 226 229 227 224 217 215 217 219 218 216 218 219 218 214 205 193 186 191 198 201 201 200 202 203 196 190 187 180 171 159 152 151 145 139 143 149 151 152 154 161 164 163 167 169 169 170 168 167 166 167 166 164 165 164 162 157 152 145 142 137 132 131 132 130 126 122 117 116 113 111 112 113 113 115 115 113
231 231 229 230 229 225 221 219 219 223 228 227 221 218 219 221 222 220 218 219 219 218 209 203 195 187 191 196 201 203 204 204 200 192 186 184 180 173 164 158 159 151 143 146 152 159 163 163 165 166 167 172 173 173 174 174 173 169 167 166 166 167 166 163 158 151 144 142 138 135 136 135 133 131 125 120 116 114 112 112 115 116 117 119 118
231 232 232 231 230 228 224 221 221 221 224 226 221 218 221 222 222 221 219 220 219 214 209 209 202 192 196 198 202 208 208 206 201 196 190 182 175 176 173 162 159 155 148 152 155 158 160 163 167 169 172 174 170 168 169 171 169 166 165 163 164 166 164 159 154 148 143 142 140 138 140 136 135 135 129 125 119 115 115 117 119 120 120 121 120
228 230 231 230 229 228 225 222 221 219 218 221 222 220 220 219 220 219 218 219 218 212 212 214 205 197 200 201 205 210 210 206 203 202 198 185 173 172 173 164 159 155 153 158 159 157 158 161 166 169 171 170 168 166 164 165 165 163 161 160 162 162 158 152 148 144 142 141 139 140 140 135 136 138 131 126 122 118 120 121 121 121 121 122 121
226 227 229 229 228 228 226 223 220 217 214 215 220 220 215 213 216 216 215 215 214 210 212 212 203 198 201 203 206 208 209 207 204 206 202 184 173 169 165 159 157 156 154 157 161 162 162 161 162 165 166 166 167 165 162 163 163 161 159 158 159 158 153 149 145 142 140 138 137 139 136 133 134 136 130 123 122 124 125 124 122 123 123 122 120
227 227 228 226 227 227 226 223 219 216 213 212 215 216 210 209 212 214 213 211 211 209 209 207 201 202 207 208 209 209 208 206 207 209 206 180 168 166 164 163 161 160 157 157 165 168 167 164 164 165 165 165 167 166 164 163 161 159 158 156 156 155 152 149 146 144 142 139 140 139 131 131 133 134 131 126 128 130 129 126 125 126 125 122 120
230 229 228 225 225 226 225 221 218 215 212 210 210 210 208 208 210 211 211 209 208 207 206 204 202 208 213 214 213 212 208 206 208 211 206 177 164 166 168 171 168 165 166 167 169 169 168 169 170 170 169 171 170 167 167 166 163 160 158 155 154 155 154 152 150 149 146 144 145 140 132 130 132 134 135 135 136 134 129 126 127 127 124 123 124
229 231 229 225 223 224 223 219 217 214 210 209 207 206 206 208 210 209 209 207 205 205 204 203 206 210 215 219 217 215 211 206 206 208 202 179 166 168 169 171 170 168 170 172 171 168 169 172 173 173 172 172 170 167 167 167 166 164 160 155 154 157 158 154 153 153 151 149 146 142 137 136 136 135 137 139 139 138 133 129 129 127 122 124 125
230 233 230 224 222 220 220 217 216 213 209 208 206 205 205 207 209 208 208 207 204 204 205 205 207 211 218 224 222 219 216 209 204 205 204 189 174 172 172 171 172 172 172 173 174 170 169 170 171 169 168 169 167 166 166 165 166 165 160 157 157 161 161 157 155 154 155 152 145 142 139 139 142 138 137 141 142 142 137 131 134 131 126 128 127
232 234 229 225 222 217 217 215 214 213 208 206 205 205 204 205 206 206 206 205 203 205 207 208 210 214 220 223 224 222 219 214 207 200 196 188 178 174 175 174 173 176 174 174 178 173 167 168 170 167 166 166 165 165 167 165 166 165 161 160 162 164 163 160 159 156 155 152 145 142 138 136 142 143 140 142 144 142 134 130 134 133 130 129 130
233 232 228 227 223 215 215 215 213 212 208 205 204 204 204 204 205 205 204 202 203 207 210 212 214 216 220 220 223 224 222 219 212 204 194 186 180 176 178 179 177 178 177 175 178 175 167 168 170 168 166 165 165 166 166 165 166 166 164 165 165 165 164 163 164 161 155 154 150 146 141 139 146 147 144 144 145 138 132 133 136 135 131 129 132
233 230 229 227 220 213 215 215 213 211 208 208 207 205 204 204 205 205 205 205 205 208 210 213 217 217 219 219 220 222 223 219 214 208 200 190 183 180 181 182 180 180 180 177 177 176 169 169 170 170 170 168 167 166 167 166 166 167 168 168 168 165 164 165 168 165 161 159 155 149 143 144 150 151 148 147 144 137 135 138 136 137 133 130 133
231 229 231 225 215 215 214 213 213 210 207 207 206 206 205 205 206 205 206 207 207 208 208 211 216 217 218 219 218 216 218 219 215 208 203 195 182 180 183 184 185 182 180 177 174 174 170 170 171 170 172 171 168 167 168 168 166 167 169 169 169 167 165 167 169 166 165 160 153 149 145 141 142 147 148 147 147 142 142 140 135 136 133 132 134
236 234 232 223 217 217 212 210 211 209 208 206 204 203 204 204 204 205 206 205 205 206 208 211 214 215 215 215 214 212 212 216 216 210 206 200 184 181 185 187 187 182 178 177 172 172 171 170 172 171 171 170 168 168 168 168 166 167 170 170 170 169 167 168 168 166 165 158 154 153 145 135 128 135 143 147 149 143 141 140 137 137 134 134 136
246 240 232 226 222 216 211 209 207 207 209 209 207 205 205 205 204 204 204 205 206 207 211 215 216 215 213 210 207 207 206 209 215 214 208 199 187 184 188 190 188 184 181 177 174 174 172 172 175 175 174 174 171 170 169 167 166 167 170 171 170 169 168 168 166 165 165 160 159 156 145 136 132 136 140 141 142 139 139 139 137 139 138 136 136
253 243 234 231 225 215 210 209 206 206 208 209 210 209 208 207 206 205 204 205 207 208 211 215 216 214 212 208 204 204 202 203 211 214 209 202 195 190 190 192 190 188 185 179 176 174 172 174 179 178 175 176 173 170 170 168 166 167 168 169 170 168 168 169 165 161 163 162 159 154 147 141 142 146 144 140 142 143 141 141 141 143 144 144 141
259 250 240 234 227 218 212 209 207 206 207 208 209 209 208 207 207 208 206 205 205 206 209 211 212 211 210 208 204 201 201 203 209 214 214 210 206 196 189 190 188 187 185 180 178 176 174 175 178 178 173 171 171 167 168 168 165 165 165 167 168 169 169 170 166 159 157 157 155 153 149 145 149 156 152 147 152 152 145 145 149 152 151 152 151
271 258 247 237 229 222 215 210 208 207 208 209 208 206 205 204 204 205 206 205 204 205 208 208 208 208 210 210 202 198 202 206 210 214 214 209 206 198 186 185 185 183 184 184 182 181 181 177 175 177 175 170 169 166 164 165 165 163 163 165 166 169 171 171 170 163 158 154 151 152 152 149 151 160 159 155 159 160 157 156 155 154 154 157 159
284 268 255 244 235 227 220 214 211 208 208 210 211 210 208 207 205 204 204 205 205 207 208 207 207 209 211 209 201 199 204 206 208 211 212 209 207 202 191 185 185 187 190 189 186 184 185 185 178 177 181 175 169 167 164 162 161 160 159 162 166 169 171 172 173 169 165 157 150 152 153 152 154 160 165 166 165 163 166 172 169 162 158 160 165
297 279 264 253 243 235 227 221 216 210 208 208 210 210 208 206 203 202 204 206 208 208 207 206 207 208 210 207 201 202 204 204 208 210 211 212 210 206 199 193 191 192 191 189 186 185 185 189 184 176 178 178 172 167 162 158 156 156 156 158 163 167 169 172 174 172 169 162 154 152 152 152 155 160 165 172 175 169 169 176 181 179 173 168 171
316 295 273 259 248 241 234 228 221 214 211 207 205 202 199 198 197 200 203 205 207 206 206 205 205 206 207 206 202 203 204 204 208 210 210 210 207 205 199 194 194 192 191 188 186 187 187 188 185 176 170 170 170 168 163 158 150 145 149 152 157 163 165 168 172 175 173 170 164 158 156 155 157 161 165 172 177 174 172 178 182 185 185 182 179
333 318 288 267 251 242 239 234 227 218 213 209 204 199 195 193 193 196 199 199 200 201 201 202 203 206 207 206 204 204 203 204 209 210 210 209 205 202 195 189 189 188 190 191 189 191 192 188 183 177 171 165 163 166 166 159 145 134 137 142 147 154 160 165 169 174 175 175 175 170 166 162 161 165 168 174 181 183 185 188 189 188 189 193 193
334 327 307 284 259 244 241 240 235 224 217 213 210 205 200 198 196 196 198 198 196 197 198 199 201 205 206 205 205 205 204 206 210 210 208 207 202 198 192 187 185 184 185 190 191 192 191 189 182 173 172 169 165 164 165 161 147 140 135 123 127 142 155 165 169 173 176 175 176 175 176 174 171 172 174 180 188 195 200 204 207 205 203 208 211
335 329 317 301 278 254 245 243 240 232 223 217 215 214 208 204 203 201 199 198 197 197 197 198 200 202 204 205 205 205 205 205 209 209 206 205 201 197 193 188 186 185 186 188 192 191 188 190 186 176 171 169 166 165 167 167 153 140 134 126 132 128 139 176 176 175 177 176 177 176 176 179 179 180 181 183 190 197 204 207 211 215 219 225 229
342 337 330 317 301 277 259 248 242 238 231 223 220 221 219 211 210 209 204 201 200 198 196 197 199 200 202 205 205 205 205 206 207 208 205 204 203 202 198 193 191 192 191 190 192 192 190 190 188 182 174 164 162 166 169 172 163 151 137 108 127 135 170 201 177 173 178 178 181 182 181 183 184 185 188 190 195 201 207 212 216 222 226 233 236
344 340 336 328 315 299 282 261 246 242 238 232 224 222 225 220 212 209 204 201 201 196 191 193 197 199 201 204 206 205 205 205 206 206 204 203 203 203 202 199 197 197 195 193 194 194 193 191 189 186 180 172 166 166 169 174 174 172 165 146 135 161 189 167 160 176 189 186 186 188 189 192 193 194 197 199 204 208 214 220 225 231 234 235 236
342 338 336 332 325 315 302 281 258 248 244 239 229 220 220 218 213 207 196 192 193 189 188 190 194 198 201 203 205 206 205 204 204 203 202 201 201 202 203 200 198 196 195 196 196 195 193 193 193 190 184 181 173 166 168 172 177 181 181 176 171 175 162 150 152 180 196 195 196 197 197 198 200 204 206 209 213 215 220 226 229 232 234 233 231
336 334 333 332 329 324 315 300 278 259 249 243 236 225 219 214 212 214 207 197 195 193 191 192 195 198 199 199 202 204 204 204 203 202 201 201 200 200 202 200 199 198 197 198 197 195 193 193 195 192 187 184 179 174 173 172 174 184 189 187 181 170 170 166 164 156 166 202 204 201 204 205 205 208 213 216 220 224 227 228 228 227 224 222 219
334 333 331 329 327 327 322 311 296 276 260 250 241 231 223 216 211 213 216 213 207 200 194 193 196 197 197 196 198 201 202 203 204 202 200 200 199 199 201 201 200 200 200 198 197 196 196 195 194 192 188 187 186 182 178 177 179 184 187 189 189 177 177 179 177 165 138 171 193 201 205 205 208 210 215 220 223 225 225 223 220 216 212 209 207
337 336 333 330 327 329 326 316 306 293 276 261 248 237 227 221 216 212 215 218 217 210 200 194 194 195 195 196 196 199 201 202 203 203 202 201 199 198 200 201 199 199 201 200 198 198 199 197 195 193 191 191 192 189 185 184 187 186 184 187 186 174 177 182 180 174 153 154 179 196 185 189 202 206 209 213 214 212 208 208 205 201 200 196 194
339 340 340 338 335 334 331 321 312 303 292 274 257 245 234 224 219 216 213 212 213 213 206 197 193 192 194 196 196 197 199 200 202 204 203 202 200 199 199 200 199 199 202 202 200 201 202 201 199 196 195 195 194 194 193 192 193 191 187 185 181 173 172 174 180 179 166 159 171 164 163 164 161 172 188 190 189 190 187 188 191 190 190 190 191
341 343 344 344 343 340 335 327 320 310 298 284 265 250 240 230 221 219 217 210 206 207 206 199 194 191 191 195 196 197 198 200 201 203 204 202 201 201 201 201 200 201 203 204 203 204 206 206 203 199 198 198 196 196 197 196 195 195 193 191 190 188 185 183 184 179 169 158 150 140 159 157 145 140 154 168 171 174 178 181 186 188 190 190 191